Location: ????????
(55.6333°N, 37.7000°E)
Time: 06:48:18
(UTC+00:00)

SL-14 R/B - Pass Details

Date: 19 May 2025
Orbit: 501 x 530 km, 82.4° (Epoch: 15 June)

Event Time Altitude Azimuth Distance (km) Brightness Sun altitude
Exits shadow 22:19:05 23° 185° (S) 1,127 4.3 -13.5°
Maximum altitude 22:21:22 80° 100° (E) 536 3.2 -13.5°
Drops below altitude 10° 22:25:17 10° 14° (NNE) 1,777 7.4 -13.3°
Sets 22:27:26 0° 13° (NNE) 2,675 8.9 -13.3°
